Location: *
(43.9900°N, 3.4811°E)
Time: 14:15:24
(UTC+00:00)

Cosmos 1269 Rocket - Pass Details

Date: 25 August 2019
Orbit: 773 x 779 km, 74.1° (Epoch: 20 September)

Event Time Altitude Azimuth Distance (km) Brightness Sun altitude
Rises 21:33:53 0° 342° (NNW) 3,263 8.4 -27.5°
Reaches altitude 10° 21:36:19 10° 345° (NNW) 2,333 7.3 -27.7°
Enters shadow 21:40:56 57° 33° (NNE) 911 4.4 -28.2°
